Список аэропортов
Фактическая погода:

22 января, 23:30
Температура: -1°C (-3.6*)
Ветер: сев.-восточный 2 м/с
Давление: *770 мм
Без существ. явл.
Время (МСК)Темп. СВетерВлажностьДавлениеОблачностьОсадки
21:00+2ЮВ, 1 м/с72%1031 гПаясно
22:00+2В, 1 м/с71%1031 гПаясно
23:00+1СВ, 1 м/с68%1031 гПаясно
23 января
00:00+1Штиль 67%1031 гПаясно
01:00+1Штиль 68%1031 гПаясно
02:00+1В, 1 м/с68%1031 гПаясно
03:00+1СВ, 1 м/с67%1031 гПаясно
04:00+1СВ, 1 м/с66%1031 гПаясно
05:000С, 1 м/с69%1030 гПаясно
06:000Штиль 70%1030 гПаясно
07:000СВ, 1 м/с67%1030 гПаясно
08:000Штиль 67%1030 гПаясно
09:000Штиль 67%1029 гПаясно
10:000Штиль 67%1029 гПаясно
11:00+1СВ, 1 м/с65%1028 гПаясно
12:00+4Ю, 1 м/с65%1027 гПаясно
13:00+6Ю, 1 м/с67%1026 гПаясно
14:00+8ЮЗ, 1 м/с66%1024 гПаясно
15:00+9Ю, 2 м/с64%1023 гПаясно
16:00+9Ю, 2 м/с65%1022 гПаясно
17:00+9Ю, 1 м/с66%1022 гПамалооблачно
18:00+9ЮЗ, 1 м/с65%1022 гПамалооблачно
19:00+7Ю, 2 м/с69%1022 гПаясно
20:00+6В, 2 м/с74%1023 гПаясно
21:00+6СВ, 1 м/с77%1023 гПас прояснениями
22:00+4СВ, 1 м/с76%1022 гПамалооблачно
23:00+4Штиль 73%1023 гПамалооблачно
24 января
00:00+4СВ, 1 м/с70%1022 гПас прояснениями
01:00+4В, 1 м/с70%1022 гПаоблачно
02:00+4С, 1 м/с67%1022 гПаоблачно
03:00+4Штиль 68%1021 гПаоблачно
04:00+4Штиль 68%1020 гПаоблачно
05:00+4Штиль 69%1019 гПаоблачно
06:00+4СВ, 1 м/с70%1018 гПаоблачно
07:00+4С, 2 м/с68%1018 гПаоблачно
08:00+4С, 1 м/с70%1017 гПаоблачно
09:00+4В, 1 м/с69%1017 гПаоблачно
10:00+4В, 1 м/с68%1017 гПаоблачно
11:00+6Ю, 1 м/с71%1016 гПаоблачно
12:00+7Штиль 70%1015 гПаоблачно
13:00+9С, 1 м/с67%1015 гПаоблачно
14:00+10ЮЗ, 1 м/с63%1014 гПамалооблачно
15:00+11ЮЗ, 1 м/с62%1013 гПас прояснениями
16:00+11ЮЗ, 2 м/с62%1013 гПаоблачно
17:00+10ЮЗ, 2 м/с55%1013 гПаоблачно
18:00+10ЮЗ, 2 м/с59%1013 гПаоблачно
19:00+9З, 1 м/с66%1013 гПаоблачно
20:00+8С, 1 м/с66%1014 гПаоблачно
21:00+9С, 1 м/с67%1014 гПаоблачно